Hourly Weather Barycz

Today, 19 June, Saturday

Time Temperature Precipitation Wind Pressure Humidity
00:00 +19°C° 0 mm 2 mps 744 mmHg 82%
01:00 +19°C° 0 mm 2 mps 744 mmHg 84%
02:00 +19°C° 0 mm 2 mps 744 mmHg 85%
03:00 +18°C° 0 mm 2 mps 744 mmHg 87%
04:00 +18°C° 0 mm 2 mps 744 mmHg 88%
05:00 +20°C° 0 mm 3 mps 744 mmHg 80%
06:00 +21°C° 0 mm 3 mps 744 mmHg 72%
07:00 +24°C° 0 mm 3 mps 744 mmHg 64%
08:00 +26°C° 0 mm 4 mps 744 mmHg 61%
09:00 +27°C° 0 mm 4 mps 744 mmHg 57%
10:00 +28°C° 0 mm 4 mps 744 mmHg 54%
11:00 +29°C° 0 mm 4 mps 744 mmHg 51%
12:00 +30°C° 0 mm 4 mps 744 mmHg 48%
13:00 +32°C° 0 mm 4 mps 744 mmHg 45%
14:00 +32°C° 0 mm 4 mps 743 mmHg 46%
15:00 +32°C° 0 mm 4 mps 743 mmHg 46%
16:00 +30°C° 0 mm 4 mps 743 mmHg 47%
17:00 +29°C° 0 mm 4 mps 743 mmHg 55%
18:00 +27°C° 0 mm 4 mps 743 mmHg 63%
19:00 +26°C° 0 mm 4 mps 742 mmHg 71%
20:00 +24°C° 0 mm 3 mps 743 mmHg 75%
21:00 +22°C° 0 mm 3 mps 743 mmHg 80%
22:00 +21°C° 0 mm 2 mps 743 mmHg 85%
23:00 +20°C° 0 mm 2 mps 743 mmHg 87%

Tomorrow, 20 June, Sunday

Time Temperature Precipitation Wind Pressure Humidity
00:00 +19°C° 0 mm 2 mps 743 mmHg 89%
01:00 +19°C° 0 mm 2 mps 743 mmHg 90%
02:00 +19°C° 0 mm 2 mps 742 mmHg 92%
03:00 +18°C° 0 mm 2 mps 742 mmHg 93%
04:00 +18°C° 0 mm 2 mps 742 mmHg 94%
05:00 +19°C° 0 mm 2 mps 742 mmHg 86%
06:00 +21°C° 0 mm 3 mps 742 mmHg 78%
07:00 +23°C° 0 mm 4 mps 742 mmHg 69%
08:00 +25°C° 0 mm 4 mps 742 mmHg 63%
09:00 +26°C° 0 mm 4 mps 742 mmHg 57%
10:00 +28°C° 0 mm 4 mps 742 mmHg 50%
11:00 +28°C° 0 mm 4 mps 742 mmHg 49%
12:00 +29°C° 0 mm 5 mps 741 mmHg 47%
13:00 +30°C° 0 mm 5 mps 741 mmHg 45%
14:00 +30°C° 0 mm 5 mps 740 mmHg 46%
15:00 +30°C° 0 mm 4 mps 740 mmHg 46%
16:00 +30°C° 0 mm 4 mps 740 mmHg 47%
17:00 +28°C° 0 mm 4 mps 740 mmHg 55%
18:00 +27°C° 0 mm 4 mps 740 mmHg 62%
19:00 +25°C° 0 mm 3 mps 739 mmHg 70%
20:00 +24°C° 0 mm 3 mps 739 mmHg 75%
21:00 +22°C° 0 mm 3 mps 739 mmHg 80%
22:00 +21°C° 0 mm 3 mps 739 mmHg 85%
23:00 +21°C° 0 mm 3 mps 739 mmHg 88%

Day after tomorrow, 21 June, Monday

Time Temperature Precipitation Wind Pressure Humidity
00:00 +20°C° 0 mm 2 mps 739 mmHg 90%
01:00 +19°C° 0 mm 2 mps 738 mmHg 93%
02:00 +19°C° 0 mm 2 mps 738 mmHg 93%
03:00 +19°C° 0 mm 2 mps 738 mmHg 93%
04:00 +18°C° 0 mm 3 mps 738 mmHg 94%
05:00 +20°C° 0 mm 3 mps 738 mmHg 86%
06:00 +22°C° 0 mm 4 mps 738 mmHg 78%
07:00 +23°C° 0 mm 4 mps 738 mmHg 71%
08:00 +26°C° 0 mm 4 mps 738 mmHg 65%
09:00 +27°C° 0 mm 4 mps 738 mmHg 60%
10:00 +29°C° 0 mm 4 mps 738 mmHg 54%
11:00 +29°C° 0 mm 3 mps 737 mmHg 51%
12:00 +30°C° 0 mm 3 mps 737 mmHg 49%
13:00 +31°C° 0 mm 3 mps 737 mmHg 46%
14:00 +30°C° 0 mm 3 mps 737 mmHg 49%
15:00 +29°C° 0 mm 3 mps 737 mmHg 53%
16:00 +29°C° 0 mm 4 mps 736 mmHg 56%
17:00 +27°C° 0.3 mm 3 mps 737 mmHg 63%
18:00 +26°C° 0.3 mm 2 mps 737 mmHg 70%
19:00 +24°C° 0.3 mm 2 mps 737 mmHg 77%
20:00 +23°C° 0.2 mm 2 mps 737 mmHg 81%
21:00 +21°C° 0.2 mm 2 mps 737 mmHg 84%
22:00 +20°C° 0.2 mm 2 mps 737 mmHg 87%
23:00 +21°C° 0.1 mm 1 mps 737 mmHg 88%

22 June, Tuesday

Time Temperature Precipitation Wind Pressure Humidity
00:00 +20°C° 0.1 mm 1 mps 737 mmHg 89%
01:00 +18°C° 0.1 mm 0 mps 737 mmHg 90%
02:00 +18°C° 0 mm 0 mps 737 mmHg 90%
03:00 +18°C° 0 mm 0 mps 737 mmHg 90%
04:00 +18°C° 0 mm 0 mps 738 mmHg 90%
05:00 +19°C° 0 mm 0 mps 738 mmHg 86%
06:00 +21°C° 0 mm 0 mps 738 mmHg 81%
07:00 +24°C° 0 mm 1 mps 739 mmHg 77%
08:00 +25°C° 0.3 mm 1 mps 739 mmHg 72%
09:00 +27°C° 0.3 mm 1 mps 739 mmHg 67%
10:00 +28°C° 0.3 mm 1 mps 739 mmHg 61%
11:00 +29°C° 0.5 mm 1 mps 739 mmHg 59%
12:00 +29°C° 0.5 mm 1 mps 740 mmHg 56%
13:00 +30°C° 0.5 mm 2 mps 740 mmHg 53%
14:00 +30°C° 0.3 mm 2 mps 740 mmHg 54%
15:00 +30°C° 0.3 mm 2 mps 740 mmHg 55%
16:00 +29°C° 0.3 mm 2 mps 740 mmHg 57%
17:00 +28°C° 0.4 mm 2 mps 740 mmHg 63%
18:00 +27°C° 0.4 mm 2 mps 740 mmHg 70%
19:00 +26°C° 0.4 mm 1 mps 740 mmHg 76%
20:00 +25°C° 0.1 mm 1 mps 740 mmHg 79%
21:00 +24°C° 0.1 mm 1 mps 741 mmHg 82%
22:00 +23°C° 0.1 mm 1 mps 741 mmHg 85%
23:00 +22°C° 0 mm 1 mps 741 mmHg 86%

23 June, Wednesday

Time Temperature Precipitation Wind Pressure Humidity
00:00 +22°C° 0 mm 1 mps 741 mmHg 87%
01:00 +22°C° 0 mm 1 mps 741 mmHg 89%
02:00 +19°C° 0 mm 0 mps 741 mmHg 88%
03:00 +19°C° 0 mm 0 mps 741 mmHg 88%
04:00 +19°C° 0 mm 0 mps 741 mmHg 88%
05:00 +23°C° 0 mm 1 mps 741 mmHg 83%
06:00 +24°C° 0 mm 1 mps 741 mmHg 77%
07:00 +26°C° 0 mm 1 mps 741 mmHg 72%
08:00 +27°C° 0 mm 2 mps 741 mmHg 65%
09:00 +29°C° 0 mm 2 mps 741 mmHg 58%
10:00 +30°C° 0 mm 2 mps 741 mmHg 51%
11:00 +31°C° 0 mm 2 mps 741 mmHg 49%
12:00 +32°C° 0 mm 2 mps 741 mmHg 47%
13:00 +32°C° 0 mm 2 mps 741 mmHg 44%
14:00 +32°C° 0 mm 2 mps 741 mmHg 45%
15:00 +33°C° 0 mm 3 mps 741 mmHg 46%
16:00 +33°C° 0 mm 3 mps 741 mmHg 47%
17:00 +30°C° 0 mm 3 mps 741 mmHg 54%
18:00 +29°C° 0 mm 3 mps 741 mmHg 60%
19:00 +28°C° 0 mm 3 mps 741 mmHg 67%
20:00 +27°C° 0 mm 3 mps 741 mmHg 70%
21:00 +25°C° 0 mm 3 mps 741 mmHg 73%
22:00 +24°C° 0 mm 3 mps 741 mmHg 76%
23:00 +24°C° 0 mm 2 mps 741 mmHg 78%

24 June, Thursday

Time Temperature Precipitation Wind Pressure Humidity
00:00 +23°C° 0 mm 2 mps 740 mmHg 80%
01:00 +23°C° 0 mm 2 mps 740 mmHg 82%
02:00 +23°C° 0 mm 2 mps 740 mmHg 85%
03:00 +23°C° 0 mm 2 mps 740 mmHg 87%
04:00 +21°C° 0 mm 2 mps 740 mmHg 89%
05:00 +21°C° 0.3 mm 3 mps 741 mmHg 87%
06:00 +21°C° 0.3 mm 4 mps 742 mmHg 85%
07:00 +21°C° 0.3 mm 6 mps 742 mmHg 82%
08:00 +22°C° 0.1 mm 5 mps 743 mmHg 75%
09:00 +23°C° 0.1 mm 5 mps 743 mmHg 69%
10:00 +25°C° 0.1 mm 5 mps 744 mmHg 62%
11:00 +26°C° 0 mm 5 mps 744 mmHg 58%
12:00 +27°C° 0 mm 5 mps 744 mmHg 55%
13:00 +28°C° 0 mm 5 mps 744 mmHg 51%
14:00 +28°C° 0 mm 5 mps 744 mmHg 51%
15:00 +27°C° 0 mm 4 mps 744 mmHg 52%
16:00 +27°C° 0 mm 4 mps 744 mmHg 52%
17:00 +26°C° 0 mm 4 mps 744 mmHg 58%
18:00 +25°C° 0 mm 3 mps 744 mmHg 64%
19:00 +22°C° 0 mm 3 mps 744 mmHg 70%
20:00 +21°C° 0 mm 2 mps 744 mmHg 74%
21:00 +20°C° 0 mm 2 mps 745 mmHg 77%
22:00 +19°C° 0 mm 2 mps 745 mmHg 81%
23:00 +18°C° 0 mm 2 mps 745 mmHg 83%
Show more